www.pogodaiklimat.ru

Погода и климат >> Архив погоды >> Дания >> Ланго


ПОГОДА в Ланго

  • Прогноз погоды в Ланго
  • Монитор погоды в Ланго

АРХИВ ПОГОДЫ в Ланго

Время (UTC), дата Ветер
(напр.,м/с)
 
Видим.   Явления Облачность Т
(С)
Тd
(С)
f
(%)
Тe
(С)
Тes
(С)
Комфортность P
(гПа)
Po
(гПа)
Тmin
(С)
Tmax
(С)
R
(мм)
R24
(мм)
S
(см)
22 15.07 З 9 н/о н/о +14.7 +12.7 88 +12 +12 1012.8 1012.4
23 15.07 З 9 н/о н/о +14.5 +12.9 90 +12 +12 1012.9 1012.4
00 16.07 З 8 н/о н/о +14.2 +12.9 92 +12 +12 1013.0 1012.6
01 16.07 З 8 н/о н/о +14.3 +13.1 92 +12 +12 1013.2 1012.7
02 16.07 З 7 н/о н/о +14.0 +12.5 91 +12 +12 1012.9 1012.5
03 16.07 З 8 н/о н/о +14.0 +12.2 89 +12 +12 1012.9 1012.5
04 16.07 З 6 н/о н/о +14.0 +12.1 88 +12 +12 1012.7 1012.3
05 16.07 СЗ 8 н/о н/о +14.4 +11.9 85 +12 +12 1012.7 1012.3
06 16.07 З 7 н/о н/о +14.7 +11.5 81 +13 +13 1012.5 1012.1 +13.7 +16.2
07 16.07 З 8 н/о н/о +14.9 +11.6 81 +13 +13 1012.6 1012.1
08 16.07 З 7 н/о н/о +15.1 +11.6 80 +13 +13 1012.6 1012.1
09 16.07 З 8 н/о н/о +15.5 +11.5 77 +14 +14 1012.6 1012.2
10 16.07 З 7 н/о н/о +16.0 +11.9 77 +14 +14 1012.8 1012.4
11 16.07 З 7 н/о н/о +16.6 +12.7 78 +15 +15 1013.0 1012.6
12 16.07 З 6 н/о н/о +17.2 +12.5 74 +16 +16 1013.0 1012.6
14 16.07 С 2 н/о н/о +16.9 +13.4 80 +17 +17 1013.4 1012.9
15 16.07 СВ 1 н/о н/о +18.2 +12.8 71 +20 +20 1013.1 1012.7
16 16.07 н/о н/о +17.5 +14.5 83 1013.3 1012.9
17 16.07 С 2 н/о н/о +17.7 +13.8 78 +18 +18 1013.7 1013.3
18 16.07 штиль 0 н/о н/о +18.2 +14.5 79 +18 +18 1013.7 1013.2 +14.7 +18.8
19 16.07 З 1 н/о н/о +17.3 +14.2 82 +19 +19 1013.8 1013.3
20 16.07 З 5 н/о н/о +16.3 +13.9 86 +15 +15 1014.4 1013.9
21 16.07 З 6 н/о н/о +15.5 +13.7 89 +14 +14 1014.5 1014.0
22 16.07 З 4 н/о н/о +15.4 +14.2 93 +14 +14 1014.6 1014.2
23 16.07 З 5 н/о н/о +14.7 +13.8 94 +13 +13 1014.5 1014.0
00 17.07 З 6 н/о н/о +14.4 +13.8 96 +12 +12 1014.6 1014.2
01 17.07 СЗ 5 н/о н/о +15.2 +14.4 95 +14 +14 1014.6 1014.1 0.1
02 17.07 З 5 н/о н/о +14.7 +14.2 97 +13 +13 1014.4 1014.0
03 17.07 З 5 н/о н/о +14.6 +14.1 97 +13 +13 1014.5 1014.0 0.1
04 17.07 СЗ 6 н/о н/о +14.5 +13.7 95 +12 +12 1014.7 1014.3 0.1
05 17.07 СЗ 5 н/о н/о +13.7 +13.2 97 +12 +12 1014.8 1014.3
06 17.07 С 3 н/о н/о +13.3 +12.9 97 +12 +12 1014.9 1014.5 +13.1 +18.5 0.1
07 17.07 С 3 н/о н/о +13.4 +12.8 96 +12 +12 1015.2 1014.7
08 17.07 СЗ 2 н/о н/о +13.8 +13.0 95 +13 +13 1015.2 1014.8
09 17.07 СЗ 2 н/о н/о +14.3 +13.1 92 +14 +14 1015.3 1014.9
10 17.07 С 2 н/о н/о +15.2 +13.5 90 +15 +15 1015.3 1014.9
11 17.07 З 3 н/о н/о +16.6 +13.5 82 +16 +16 1015.3 1014.8
12 17.07 ЮЗ 3 н/о н/о +18.1 +13.8 76 +18 +18 1015.1 1014.7
13 17.07 З 4 н/о н/о +19.1 +13.8 71 +20 +20 1015.0 1014.5
14 17.07 ЮЗ 4 н/о н/о +17.9 +13.4 75 +18 +18 1014.9 1014.5
15 17.07 ЮЗ 5 н/о н/о +19.2 +12.9 67 +20 +20 1014.7 1014.3
16 17.07 ЮЗ 4 н/о н/о +19.0 +12.5 66 +20 +20 1014.2 1013.8
17 17.07 ЮЗ 3 н/о н/о +18.9 +12.5 66 +20 +20 1014.1 1013.6
18 17.07 ЮЗ 2 н/о н/о +18.4 +13.3 72 +19 +19 1014.0 1013.5 +13.2 +19.8
19 17.07 ЮЗ 3 н/о н/о +17.2 +14.1 82 +17 +17 1014.1 1013.6
20 17.07 З 2 н/о н/о +15.8 +13.2 85 +16 +16 1014.1 1013.6
21 17.07 ЮЗ 2 н/о н/о +16.0 +13.6 86 +16 +16 1013.9 1013.5
22 17.07 ЮЗ 2 н/о н/о +15.6 +13.9 90 +15 +15 1014.0 1013.5
23 17.07 ЮЗ 3 н/о н/о +15.5 +14.5 94 +15 +15 1013.9 1013.4
00 18.07 ЮЗ 2 н/о н/о +14.8 +14.2 96 +14 +14 1013.8 1013.3
01 18.07 З 2 н/о н/о +15.3 +14.5 95 +15 +15 1013.5 1013.1
02 18.07 ЮЗ 2 н/о н/о +15.0 +14.3 96 +15 +15 1013.3 1012.9
03 18.07 Ю 1 н/о н/о +13.9 +13.4 97 +14 +14 1013.4 1012.9
04 18.07 Ю 1 н/о н/о +13.7 +13.3 97 +14 +14 1013.3 1012.9
05 18.07 Ю 1 н/о н/о +15.9 +15.2 96 +17 +17 1013.4 1012.9
06 18.07 Ю 2 н/о н/о +17.1 +15.5 90 +18 +18 1013.3 1012.8 +13.3 +18.5
07 18.07 Ю 3 н/о н/о +19.0 +13.5 70 +20 +20 1013.2 1012.8
08 18.07 Ю 3 н/о н/о +19.4 +13.9 70 +21 +21 комфорт 1013.2 1012.7
09 18.07 Ю 3 н/о н/о +20.5 +12.5 60 +23 +23 комфорт 1013.1 1012.7
10 18.07 Ю 4 н/о н/о +21.2 +11.2 53 +23 +23 комфорт 1013.1 1012.7
11 18.07 Ю 4 н/о н/о +22.7 +11.1 48 +25 +25 комфорт 1012.8 1012.4
12 18.07 Ю 3 н/о н/о +22.8 +11.1 48 +25 +25 комфорт 1012.7 1012.3
13 18.07 Ю 3 н/о н/о +23.2 +10.9 46 +25 +25 комфорт 1012.5 1012.1
14 18.07 Ю 2 н/о н/о +23.8 +11.1 45 +25 +25 комфорт 1012.2 1011.7
15 18.07 Ю 3 н/о н/о +22.5 +11.3 49 +25 +25 комфорт 1011.9 1011.4
16 18.07 ЮВ 3 н/о н/о +21.3 +11.4 53 +23 +23 комфорт 1011.6 1011.2
17 18.07 ЮВ 2 н/о н/о +20.9 +13.2 61 +24 +24 комфорт 1011.6 1011.1
18 18.07 ЮВ 4 н/о н/о +20.3 +11.5 57 +22 +22 комфорт 1011.3 1010.9 +17.2 +24.0
19 18.07 ЮВ 4 н/о н/о +19.3 +11.8 62 +20 +20 1011.4 1010.9
20 18.07 ЮВ 4 н/о н/о +18.2 +12.8 71 +18 +18 1011.4 1011.0
21 18.07 ЮВ 4 н/о н/о +17.9 +12.9 73 +18 +18 1011.2 1010.7
22 18.07 ЮВ 4 н/о н/о +17.6 +12.4 72 +17 +17 1011.0 1010.6
23 18.07 ЮВ 4 н/о н/о +17.5 +12.6 73 +17 +17 1010.9 1010.4
00 19.07 ЮВ 4 н/о н/о +17.3 +12.6 74 +17 +17 1010.8 1010.4
01 19.07 ЮВ 4 н/о н/о +17.2 +13.5 79 +17 +17 1010.6 1010.1
02 19.07 ЮВ 4 н/о н/о +16.8 +14.4 86 +16 +16 1010.4 1010.0
03 19.07 Ю 4 н/о н/о +17.9 +15.1 84 +18 +18 1010.5 1010.1
04 19.07 Ю 3 н/о н/о +17.9 +14.4 80 +18 +18 1010.3 1009.9
05 19.07 Ю 3 н/о н/о +18.2 +15.1 82 +19 +19 1010.3 1009.8
06 19.07 Ю 3 н/о н/о +19.4 +15.6 79 +21 +21 комфорт 1010.7 1010.3 +16.5 +20.3
07 19.07 ЮЗ 3 н/о н/о +19.2 +15.6 80 +21 +21 комфорт 1011.1 1010.6
08 19.07 З 4 н/о н/о +20.2 +15.9 76 +23 +23 комфорт 1011.4 1011.0
09 19.07 ЮЗ 4 н/о н/о +21.0 +15.7 72 +25 +25 комфорт 1011.9 1011.4
10 19.07 З 4 н/о н/о +20.8 +15.2 70 +24 +24 комфорт 1012.1 1011.7
11 19.07 ЮЗ 4 н/о н/о +21.0 +16.0 73 +25 +25 комфорт 1012.4 1012.0
12 19.07 З 4 н/о н/о +21.3 +15.6 70 +25 +25 комфорт 1012.6 1012.2
13 19.07 З 3 н/о н/о +21.5 +16.0 71 +25 +25 комфорт 1012.9 1012.4
14 19.07 ЮЗ 3 н/о н/о +21.7 +15.6 68 +25 +25 комфорт 1012.9 1012.5
15 19.07 ЮЗ 3 н/о н/о +21.7 +15.7 69 +25 +25 комфорт 1013.1 1012.6
16 19.07 ЮЗ 3 н/о н/о +21.2 +16.4 74 +25 +25 комфорт 1013.1 1012.7
17 19.07 З 3 н/о н/о +20.6 +15.2 71 +24 +24 комфорт 1013.2 1012.8
18 19.07 З 3 н/о н/о +19.3 +14.9 76 +21 +21 комфорт 1013.2 1012.8 +19.2 +22.4
19 19.07 З 4 н/о н/о +19.0 +15.1 78 +20 +20 1013.7 1013.3
20 19.07 З 3 н/о н/о +18.0 +15.7 86 +18 +18 1014.1 1013.7
21 19.07 З 3 н/о н/о +17.6 +15.0 85 +18 +18 1014.3 1013.9
22 19.07 З 2 н/о н/о +17.4 +13.2 76 +18 +18 1014.6 1014.1
23 19.07 З 2 н/о н/о +17.0 +13.2 78 +17 +17 1014.8 1014.3
00 20.07 СЗ 2 н/о н/о +17.1 +13.2 78 +18 +18 1014.6 1014.2
01 20.07 С 1 н/о н/о +16.9 +13.2 79 +18 +18 1014.4 1014.0
02 20.07 ЮВ 3 н/о н/о +14.3 +12.7 90 +13 +13 1014.2 1013.8
03 20.07 ЮВ 3 н/о н/о +13.7 +11.9 89 +13 +13 1014.1 1013.6
04 20.07 ЮВ 3 н/о н/о +14.2 +12.1 87 +13 +13 1014.0 1013.5
05 20.07 ЮВ 3 н/о н/о +15.8 +12.8 82 +15 +15 1013.8 1013.3
06 20.07 ЮВ 3 н/о н/о +18.6 +14.9 79 +20 +20 1013.8 1013.3 +13.6 +19.6
07 20.07 ЮВ 4 н/о н/о +20.1 +13.5 66 +22 +22 комфорт 1013.7 1013.3
08 20.07 ЮВ 6 н/о н/о +21.3 +13.7 62 +24 +24 комфорт 1013.5 1013.1
09 20.07 ЮВ 6 н/о н/о +22.5 +14.9 62 +26 +26 жарко 1013.2 1012.8
10 20.07 ЮВ 6 н/о н/о +23.5 +15.1 59 +26 +26 жарко 1012.9 1012.5
11 20.07 ЮВ 6 н/о н/о +22.9 +14.0 57 +26 +26 жарко 1012.5 1012.1
12 20.07 ЮВ 7 н/о н/о +24.7 +13.1 48 +27 +27 жарко 1012.1 1011.7
13 20.07 ЮВ 6 н/о н/о +26.0 +12.3 43 +28 +28 жарко 1011.7 1011.2
14 20.07 ЮВ 6 н/о н/о +26.4 +11.8 40 +28 +28 жарко 1011.0 1010.6
15 20.07 ЮВ 5 н/о н/о +26.9 +11.8 39 +28 +28 жарко 1010.5 1010.0
16 20.07 ЮВ 4 н/о н/о +25.6 +12.4 44 +27 +27 жарко 1009.6 1009.2
17 20.07 ЮЗ 11 н/о н/о +19.7 +17.1 85 +21 +21 комфорт 1010.9 1010.4
18 20.07 ЮЗ 3
{15}
н/о н/о +17.7 +17.0 96 +18 +18 1011.3 1010.9 +17.6 +27.8 5
19 20.07 Ю 4 н/о н/о +17.2 +16.6 96 +17 +17 1010.9 1010.4 3
20 20.07 Ю 5 н/о н/о +17.6 +17.0 96 +17 +17 1011.5 1011.1
21 20.07 Ю 6 н/о н/о +17.6 +17.0 96 +17 +17 1011.8 1011.4 3
22 20.07 Ю 6 н/о н/о +17.5 +16.8 96 +17 +17 1011.6 1011.1
23 20.07 Ю 7 н/о н/о +17.8 +16.8 94 +17 +17 1011.9 1011.5 0.1
00 21.07 ЮЗ 7 н/о н/о +17.5 +16.6 94 +17 +17 1012.2 1011.7 0.2
01 21.07 ЮЗ 7 н/о н/о +17.3 +16.5 95 +16 +16 1011.8 1011.3 1
02 21.07 ЮЗ 7 н/о н/о +17.3 +16.2 93 +16 +16 1011.6 1011.2
03 21.07 ЮЗ 7 н/о н/о +17.2 +16.2 94 +16 +16 1011.8 1011.3 2
04 21.07 ЮЗ 8 н/о н/о +17.2 +16.4 95 +16 +16 1012.0 1011.6
05 21.07 ЮЗ 7 н/о н/о +17.3 +16.5 95 +16 +16 1012.5 1012.1
06 21.07 ЮЗ 6 н/о н/о +17.6 +16.5 93 +17 +17 1012.8 1012.4 +17.0 +18.0
07 21.07 ЮЗ 7 н/о н/о +18.8 +16.7 88 +19 +19 1013.2 1012.8
08 21.07 ЮЗ 7 н/о н/о +18.2 +16.1 88 +18 +18 1013.9 1013.4
09 21.07 ЮЗ 6 н/о н/о +20.2 +16.2 78 +23 +23 комфорт 1014.7 1014.3
10 21.07 З 8 н/о н/о +19.3 +15.2 77 +20 +20 1015.5 1015.0
11 21.07 З 8 н/о н/о +19.6 +15.4 77 +21 +21 комфорт 1016.1 1015.7
12 21.07 З 9 н/о н/о +19.7 +14.4 71 +21 +21 комфорт 1016.8 1016.4
13 21.07 З 8 н/о н/о +19.5 +14.7 74 +21 +21 комфорт 1017.5 1017.0
14 21.07 З 8 н/о н/о +19.2 +15.0 77 +20 +20 1018.1 1017.7
15 21.07 З 8 н/о н/о +19.4 +15.2 77 +20 +20 1018.7 1018.2
16 21.07 З 9 н/о н/о +19.0 +14.0 73 +19 +19 1019.1 1018.6
17 21.07 З 8 н/о н/о +18.0 +13.2 74 +17 +17 1019.4 1018.9
18 21.07 З 8 н/о н/о +17.7 +13.2 75 +17 +17 1019.9 1019.4 +17.6 +20.3
19 21.07 З 6 н/о н/о +16.9 +12.4 75 +16 +16 1020.4 1019.9
20 21.07 З 7 н/о н/о +16.3 +13.0 81 +15 +15 1021.0 1020.5
21 21.07 З 7 н/о н/о +15.9 +12.7 81 +14 +14 1021.5 1021.1
22 21.07 З 6 н/о н/о +15.5 +12.7 83 +14 +14 1021.5 1021.0
23 21.07 З 5 н/о н/о +15.3 +12.9 86 +14 +14 1021.7 1021.2
00 22.07 З 6 н/о н/о +15.4 +13.1 86 +14 +14 1021.6 1021.2 0.1
01 22.07 З 5 н/о н/о +15.1 +13.4 90 +14 +14 1021.7 1021.3
02 22.07 З 5 н/о н/о +15.2 +13.7 91 +14 +14 1021.6 1021.2
03 22.07 З 3 н/о н/о +15.1 +14.0 93 +14 +14 1021.5 1021.0
04 22.07 З 4 н/о н/о +15.5 +14.1 91 +14 +14 1021.3 1020.9
05 22.07 З 3 н/о н/о +16.2 +13.8 86 +16 +16 1021.1 1020.6
06 22.07 ЮЗ 5 н/о н/о +16.4 +14.1 86 +16 +16 1021.4 1020.9 +14.9 +17.7
07 22.07 ЮЗ 5 н/о н/о +16.9 +13.9 82 +16 +16 1021.6 1021.1
08 22.07 ЮЗ 5 н/о н/о +16.9 +14.3 85 +16 +16 1021.8 1021.4
09 22.07 ЮЗ 6 н/о н/о +17.1 +14.7 86 +16 +16 1022.1 1021.7
10 22.07 З 5 н/о н/о +17.2 +12.9 76 +17 +17 1022.2 1021.7 0.1
11 22.07 ЮЗ 6 н/о н/о +17.1 +12.3 73 +16 +16 1022.3 1021.8 0.1
12 22.07 ЮЗ 5 н/о н/о +16.6 +12.6 77 +16 +16 1022.0 1021.5 0.2
13 22.07 ЮЗ 6 н/о н/о +15.5 +13.8 90 +14 +14 1021.7 1021.3
14 22.07 Ю 6 н/о н/о +14.4 +13.4 94 +12 +12 1021.4 1021.0 0.9
15 22.07 Ю 6 н/о н/о +14.8 +14.0 95 +13 +13 1020.8 1020.4 2
16 22.07 Ю 7 н/о н/о +15.2 +14.8 97 +13 +13 1020.4 1019.9 0.1
17 22.07 Ю 7 н/о н/о +15.8 +15.5 98 +14 +14 1019.8 1019.3 0.5
18 22.07 Ю 6 н/о н/о +16.6 +16.1 97 +15 +15 1019.5 1019.1 +14.3 +17.4 0.9
19 22.07 ЮЗ 6 н/о н/о +17.6 +16.8 95 +17 +17 1019.8 1019.4 0.1
20 22.07 ЮЗ 5 н/о н/о +17.7 +17.2 97 +17 +17 1019.9 1019.4
21 22.07 З 5 н/о н/о +17.8 +17.2 96 +17 +17 1020.3 1019.8 0.2
22 22.07 З 6 н/о н/о +17.8 +17.2 96 +17 +17 1020.2 1019.8

 

Местоположение метеостанции Ланго (Дания): широта 54.82 долгота 11.00 высота над уровнем моря 4 м.

В архиве по умолчанию представлена погода в Ланго за последнюю неделю. Архивные данные за месяц целиком и за предыдущие месяцы, начиная с января 2011 года, Вы можете получить, выбрав интересующий диапазон дат из раскрывающегося списка и нажав кнопку "Ввод!".


*Определитесь, кто Вы:
робот инопланетянин человек

Внимание! Время в таблицах - всемирное. Для получения местного времени необходимо прибавить поправку, которая равна 1 ч.

Смотрите также архив погоды в соседних городах и на ближайших метеорологических станциях:

Погода в Абеде (Дания) (21 км)
Погода в Вестермаркельсдорфе (Германия) (33 км)
Погода в Тосинге (Дания) (35 км)
Погода в Мариенлойхте (Германия) (39 км)
Погода в Омо (Дания) (40 км)
Погода в Тысофте (Дания) (52 км)
Погода в Киль маяке (Германия) (58 км)
Погода в Флаккебэрге (Дания) (61 км)
Погода в Ольпенице (Германия) (64 км)
Погода в Арслеве (Дания) (65 км)

Пояснения к столбцам:

Ветер - указаны скорость ветра в м/с - средняя за 10 мин, порывы в срок и между сроками (в фигурных скобках) и направление, откуда дует ветер: С - северный, СВ - северо-восточный, В - восточный, ЮВ - юго-восточный, Ю - южный, ЮЗ - юго-западный, З - западный, СЗ - северо-западный.
Видимость - горизонтальная дальность видимости в метрах или километрах. При видимости от 1 до 10 км при отсутствии осадков обычно наблюдается дымка, при ухудшении видимости до 1 км и менее - туман. В сухую погоду видимость может ухудшаться дымом, пылью или мглою.
Явления - указаны атмосферные явления, наблюдавшиеся в срок или в последний час перед сроком; фигурными скобками обозначены явления, наблюдавшиеся между сроками (за 1-3 часа до срока); квадратными скобками обозначены град или гололедные отложения с указанием их диаметра в мм.
Облачность - указаны через наклонную черту общая и нижняя облачность в баллах и высота нижней границы облаков в метрах; квадратными скобками обозначены формы облаков: Ci - перистые, Cs - перисто-слоистые, Cc - перисто-кучевые, Ac - высококучевые, As - высокослоистые, Sc - слоисто-кучевые, Ns - слоисто-дождевые, Cu - кучевые, Cb - кучево-дождевые. Подробнее классификацию облаков см. в Атласе облаков (PDF).
T - Температура воздуха - температура, измеренная на высоте 2 м над землей.
Td - Температура точки росы - температура, при понижении до которой содержащийся в воздухе водяной пар достигнет насыщения.
f - Относительная влажность воздуха - влажноcть воздуха, измеренная на высоте 2 м над землей.
Te - Эффективная температура - температура, которую ощущает одетый по сезону человек в тени. Характеристика душности погоды. При расчете учитывается влияние влажности воздуха и скорости ветра на теплоощущения человека.
Tes - Эффективная температура на солнце - температура, которую ощущает человек, с поправкой на солнечный нагрев. Характеристика знойности погоды. Зависит от высоты солнца над горизонтом, облачности и скорости ветра. Ночью, в пасмурную погоду, а также при ветре 12 м/с и более поправка равна нулю.
P - Атмосферное давление - приведенное к уровню моря атмосферное давление.
Po - Атмосферное давление - измеренное на уровне метеостанции атмосферное давление.
Tmin - Минимальная температура - минимум температуры воздуха на высоте 2 м над землей.
Tmax - Максимальная температура - максимум температуры воздуха на высоте 2 м над землей.
R - Количество осадков - Количество выпавших осадков за период времени, мм. При наведении курсора мыши на число - период времени, за который выпало указанное количество осадков.
R24 - Количество осадков - Количество выпавших осадков за 24 часа, мм.
S - Снежный покров - Высота снежного покрова, см. При наведении курсора мыши на число - состояние снежного покрова и степень покрытия местности в баллах.